• In Hungary
  • List of Countries
  • For 7 days
  • Water Temperature
  • Satellite Maps
  • Weather Map
  • News
  • Weather Widgets
  • user-avatar
    Login

    Hourly Weather Peremozhne

    Today, 21 January, Sunday

    Time Temperature Precipitation Wind Pressure Humidity
    00:00 -3°C° 0 mm 2 mps 731 mmHg 89%
    01:00 -1°C° 0 mm 1 mps 731 mmHg 89%
    02:00 -1°C° 0 mm 1 mps 730 mmHg 89%
    03:00 -1°C° 0.1 mm 1 mps 730 mmHg 90%
    04:00 -1°C° 0.1 mm 1 mps 730 mmHg 91%
    05:00 -1°C° 0.1 mm 1 mps 730 mmHg 92%
    06:00 -1°C° 0 mm 1 mps 730 mmHg 91%
    07:00 -1°C° 0 mm 1 mps 730 mmHg 91%
    08:00 -1°C° 0 mm 1 mps 730 mmHg 91%
    09:00 0°C° 0 mm 1 mps 731 mmHg 88%
    10:00 0°C° 0 mm 1 mps 731 mmHg 86%
    11:00 +1°C° 0 mm 1 mps 731 mmHg 84%
    12:00 +1°C° 0.1 mm 1 mps 731 mmHg 83%
    13:00 +2°C° 0.1 mm 1 mps 731 mmHg 82%
    14:00 +2°C° 0.1 mm 1 mps 731 mmHg 82%
    15:00 +1°C° 0.1 mm 2 mps 731 mmHg 85%
    16:00 -1°C° 0.1 mm 2 mps 731 mmHg 88%
    17:00 -2°C° 0.1 mm 2 mps 732 mmHg 91%
    18:00 -2°C° 0.2 mm 2 mps 732 mmHg 92%
    19:00 -2°C° 0.2 mm 3 mps 732 mmHg 93%
    20:00 -2°C° 0.2 mm 3 mps 733 mmHg 95%
    21:00 -4°C° 0.3 mm 3 mps 733 mmHg 94%
    22:00 -4°C° 0.3 mm 3 mps 733 mmHg 94%
    23:00 -4°C° 0.3 mm 4 mps 734 mmHg 94%

    Tomorrow, 22 January, Monday

    Time Temperature Precipitation Wind Pressure Humidity
    00:00 -4°C° 0.4 mm 4 mps 734 mmHg 94%
    01:00 -4°C° 0.4 mm 4 mps 735 mmHg 94%
    02:00 -4°C° 0.4 mm 4 mps 735 mmHg 94%
    03:00 -5°C° 0.3 mm 4 mps 735 mmHg 93%
    04:00 -5°C° 0.3 mm 4 mps 736 mmHg 93%
    05:00 -6°C° 0.3 mm 5 mps 736 mmHg 93%
    06:00 -5°C° 0.3 mm 4 mps 736 mmHg 93%
    07:00 -5°C° 0.3 mm 4 mps 736 mmHg 93%
    08:00 -5°C° 0.3 mm 4 mps 737 mmHg 93%
    09:00 -5°C° 0.2 mm 4 mps 737 mmHg 92%
    10:00 -5°C° 0.2 mm 4 mps 737 mmHg 91%
    11:00 -5°C° 0.2 mm 4 mps 738 mmHg 90%
    12:00 -4°C° 0.1 mm 4 mps 738 mmHg 89%
    13:00 -4°C° 0.1 mm 3 mps 738 mmHg 88%
    14:00 -4°C° 0.1 mm 3 mps 738 mmHg 87%
    15:00 -4°C° 0.1 mm 3 mps 738 mmHg 88%
    16:00 -4°C° 0.1 mm 3 mps 738 mmHg 89%
    17:00 -5°C° 0.1 mm 3 mps 738 mmHg 90%
    18:00 -5°C° 0 mm 3 mps 739 mmHg 91%
    19:00 -4°C° 0 mm 2 mps 739 mmHg 92%
    20:00 -4°C° 0 mm 2 mps 739 mmHg 92%
    21:00 -5°C° 0 mm 2 mps 740 mmHg 93%
    22:00 -5°C° 0 mm 2 mps 740 mmHg 94%
    23:00 -6°C° 0 mm 2 mps 740 mmHg 95%

    Day after tomorrow, 23 January, Tuesday

    Time Temperature Precipitation Wind Pressure Humidity
    00:00 -6°C° 0 mm 2 mps 740 mmHg 95%
    01:00 -6°C° 0 mm 2 mps 741 mmHg 95%
    02:00 -6°C° 0 mm 2 mps 741 mmHg 95%
    03:00 -6°C° 0 mm 2 mps 741 mmHg 95%
    04:00 -7°C° 0 mm 2 mps 741 mmHg 94%
    05:00 -7°C° 0 mm 2 mps 741 mmHg 94%
    06:00 -8°C° 0 mm 3 mps 742 mmHg 93%
    07:00 -8°C° 0 mm 3 mps 742 mmHg 92%
    08:00 -8°C° 0 mm 3 mps 742 mmHg 91%
    09:00 -7°C° 0 mm 3 mps 743 mmHg 89%
    10:00 -6°C° 0 mm 3 mps 743 mmHg 87%
    11:00 -5°C° 0 mm 3 mps 744 mmHg 85%
    12:00 -5°C° 0 mm 3 mps 744 mmHg 85%
    13:00 -4°C° 0 mm 3 mps 744 mmHg 84%
    14:00 -2°C° 0 mm 3 mps 744 mmHg 84%
    15:00 -4°C° 0 mm 3 mps 744 mmHg 86%
    16:00 -4°C° 0 mm 2 mps 745 mmHg 89%
    17:00 -5°C° 0 mm 2 mps 745 mmHg 92%
    18:00 -6°C° 0 mm 2 mps 745 mmHg 92%
    19:00 -6°C° 0 mm 2 mps 746 mmHg 91%
    20:00 -7°C° 0 mm 2 mps 746 mmHg 91%
    21:00 -7°C° 0 mm 2 mps 746 mmHg 91%
    22:00 -7°C° 0 mm 2 mps 747 mmHg 90%
    23:00 -7°C° 0 mm 2 mps 747 mmHg 89%

    24 January, Wednesday

    Time Temperature Precipitation Wind Pressure Humidity
    00:00 -7°C° 0 mm 2 mps 747 mmHg 89%
    01:00 -7°C° 0 mm 2 mps 747 mmHg 88%
    02:00 -7°C° 0 mm 2 mps 747 mmHg 88%
    03:00 -7°C° 0 mm 2 mps 747 mmHg 87%
    04:00 -7°C° 0 mm 2 mps 747 mmHg 86%
    05:00 -7°C° 0 mm 2 mps 747 mmHg 86%
    06:00 -8°C° 0 mm 3 mps 747 mmHg 85%
    07:00 -8°C° 0 mm 3 mps 747 mmHg 85%
    08:00 -7°C° 0 mm 3 mps 747 mmHg 84%
    09:00 -6°C° 0 mm 3 mps 748 mmHg 82%
    10:00 -5°C° 0 mm 3 mps 748 mmHg 80%
    11:00 -4°C° 0 mm 3 mps 748 mmHg 78%
    12:00 -2°C° 0 mm 3 mps 748 mmHg 79%
    13:00 -1°C° 0 mm 3 mps 748 mmHg 79%
    14:00 0°C° 0 mm 3 mps 748 mmHg 80%
    15:00 -1°C° 0 mm 3 mps 747 mmHg 81%
    16:00 -2°C° 0 mm 3 mps 747 mmHg 82%
    17:00 -4°C° 0 mm 3 mps 747 mmHg 82%
    18:00 -4°C° 0 mm 3 mps 747 mmHg 83%
    19:00 -4°C° 0 mm 4 mps 747 mmHg 83%
    20:00 -4°C° 0 mm 4 mps 747 mmHg 83%
    21:00 -5°C° 0 mm 4 mps 747 mmHg 83%
    22:00 -5°C° 0 mm 4 mps 747 mmHg 83%
    23:00 -5°C° 0 mm 4 mps 747 mmHg 83%

    25 January, Thursday

    Time Temperature Precipitation Wind Pressure Humidity
    00:00 -4°C° 0 mm 4 mps 746 mmHg 83%
    01:00 -4°C° 0 mm 4 mps 746 mmHg 84%
    02:00 -4°C° 0 mm 3 mps 746 mmHg 84%
    03:00 -4°C° 0 mm 3 mps 746 mmHg 84%
    04:00 -4°C° 0 mm 3 mps 746 mmHg 84%
    05:00 -4°C° 0 mm 3 mps 745 mmHg 84%
    06:00 -4°C° 0 mm 3 mps 745 mmHg 84%
    07:00 -4°C° 0 mm 3 mps 745 mmHg 84%
    08:00 -4°C° 0 mm 3 mps 745 mmHg 83%
    09:00 -2°C° 0 mm 3 mps 745 mmHg 82%
    10:00 -1°C° 0 mm 3 mps 744 mmHg 80%
    11:00 -1°C° 0 mm 4 mps 744 mmHg 79%
    12:00 +1°C° 0 mm 3 mps 744 mmHg 79%
    13:00 +1°C° 0 mm 3 mps 743 mmHg 80%
    14:00 +2°C° 0 mm 3 mps 743 mmHg 81%
    15:00 +1°C° 0 mm 3 mps 743 mmHg 81%
    16:00 0°C° 0 mm 3 mps 742 mmHg 80%
    17:00 0°C° 0 mm 3 mps 742 mmHg 80%
    18:00 -1°C° 0 mm 3 mps 742 mmHg 80%
    19:00 -1°C° 0 mm 3 mps 742 mmHg 80%
    20:00 -2°C° 0 mm 3 mps 742 mmHg 80%
    21:00 -2°C° 0 mm 3 mps 742 mmHg 79%
    22:00 -2°C° 0 mm 3 mps 742 mmHg 79%
    23:00 -2°C° 0 mm 3 mps 741 mmHg 78%

    26 January, Friday

    Time Temperature Precipitation Wind Pressure Humidity
    00:00 -2°C° 0 mm 3 mps 741 mmHg 78%
    01:00 -2°C° 0 mm 3 mps 741 mmHg 78%
    02:00 -2°C° 0 mm 3 mps 741 mmHg 78%
    03:00 -2°C° 0 mm 3 mps 741 mmHg 79%
    04:00 -4°C° 0 mm 3 mps 740 mmHg 79%
    05:00 -4°C° 0 mm 3 mps 740 mmHg 79%
    06:00 -4°C° 0 mm 3 mps 740 mmHg 79%
    07:00 -4°C° 0 mm 3 mps 740 mmHg 79%
    08:00 -4°C° 0 mm 3 mps 740 mmHg 79%
    09:00 -3°C° 0 mm 4 mps 740 mmHg 77%
    10:00 -2°C° 0 mm 4 mps 740 mmHg 75%
    11:00 -1°C° 0 mm 4 mps 740 mmHg 73%
    12:00 -1°C° 0 mm 4 mps 739 mmHg 74%
    13:00 0°C° 0 mm 4 mps 739 mmHg 74%
    14:00 +1°C° 0 mm 4 mps 739 mmHg 74%
    15:00 0°C° 0 mm 4 mps 739 mmHg 76%
    16:00 -1°C° 0 mm 4 mps 739 mmHg 78%
    17:00 -1°C° 0 mm 4 mps 739 mmHg 79%
    18:00 -1°C° 0 mm 4 mps 739 mmHg 79%
    19:00 -2°C° 0 mm 4 mps 739 mmHg 79%
    20:00 -2°C° 0 mm 4 mps 739 mmHg 79%
    21:00 -2°C° 0 mm 4 mps 740 mmHg 78%
    22:00 -2°C° 0 mm 4 mps 740 mmHg 78%
    23:00 -2°C° 0 mm 4 mps 740 mmHg 77%
    Show more